STARLINK-3559, 51860

Orbit data source: Space-Track

STARLINK-3559, 51860 is a payload satellite owned by SpaceX/Seattle (US) in LEO that was launched on Thu, 03 Mar 2022 UTC via an FALCON 9 launch vehicle from the Air Force Eastern Test Range (AFETR). Payload-class satellites include a variety of spacecraft equipped with specific instruments for various scientific and technological missions. These include communications satellites like Starlink; space stations such as the ISS; scientific satellites like the Hubble; Earth observation satellites from companies like Planet Labs, Umbra, and HawkEye 360; GPS; miniature CubeSats for education and research; and military/defense satellites.

Loading next visibility...
Identifier
51860, 2022-022J
Orbit
LEO
Country
Flag of USUS
Related business
Manufacturer
SpaceX/Seattle
Mission
Operational Commercial Communications
Bus & Motor
STARLINK, Unknown motor
Mass
297 kg wet, ~275 kg dry
Launch date (UTC)
2022-03-03 (4 years ago)
Launch vehicle
FALCON 9
Launch site
Air Force Eastern Test Range (AFETR)
Object type
Payload
Rocket body
Debris
Shape & HBR
Box + 1 Pan, 10.1 m
Radar Cross Section
13.562 m², Large (>1 m²)

Expand to show TLE details & history
Last TLE update: 3 days ago

TLE from 3 days ago
0 STARLINK-3559
1 51860U 22022J   26170.60571530  .00000387  00000-0  42382-4 0  9992
2 51860  53.1608 271.4906 0001156  85.3056 274.8067 15.08837615238500
Epoch: 2026-06-19T14:32Z
TLE epoch observation values (Epoch: 2026-06-19T14:32:13.801Z)
Latitude
-0.00008°
Longitude
145.60075°
Altitude
540.575 km
Speed
7.593 km/s
True Right ascension
18h 05m 57s
True Declination
0° 00' 00"
Sunlit
Object was in full shadow at epoch
Visualization orbit readout
Latitude
Unknown
Longitude
Unknown
Altitude
Unknown
Speed
Unknown
Apparent Right ascension
Unknown
Apparent Declination
Unknown
Sunlit
N/A
Visualization observer readout
Local Sidereal Time
21:33:44
Azimuth
Unknown
Elevation
Unknown
Doppler factor
Unknown
Orbital elements
Apogee altitude
540.804 km
Perigee altitude
539.205 km
Semi-major axis
6,918.142 km
Eccentricity
0.00012
Inclination
53.1608°
RAAN
271.4906°
Arg. of periapsis
85.3056°
True anomaly
274.7935°
Mean anomaly
274.8067°
Eccentric anomaly
274.8001°
Mean motion
3.77189 °/min
Orbital period
95.44 mins
BSTAR
0.000042382
Loading maneuver chart data...
Computing Atmospheric mass density...
Loading historical data...
Loading historical data...
Loading historical data...
Loading historical data...
Loading historical data...
Loading historical data...
Loading historical data...

Documentation

Showing up to 5 results
|